Location: North Runcton
(52.7000°N, 0.4333°E)
Time: 20:05:11
(UTC+00:00)

Meteor 1-27 Rocket - Pass Details

Date: 19 May 2025
Orbit: 830 x 908 km, 81.3° (Epoch: 22 June)

Event Time Altitude Azimuth Distance (km) Brightness Sun altitude
Exits shadow 22:30:54 23° 163° (SSE) 1,733 4.7 -15.1°
Maximum altitude 22:34:16 54° 96° (E) 1,019 4.0 -15.2°
Drops below altitude 10° 22:39:39 10° 20° (NNE) 2,457 6.9 -15.5°
Sets 22:42:06 0° 16° (NNE) 3,391 7.8 -15.6°
